TimeCDT,TemperatureF,Dew PointF,Humidity,Sea Level PressureIn,VisibilityMPH,Wind Direction,Wind SpeedMPH,Gust SpeedMPH,PrecipitationIn,Events,Conditions,WindDirDegrees,DateUTC
12:56 AM,64.9,63.9,96,30.03,10.0,Calm,Calm,-,N/A,,Clear,0,2013-07-03 05:56:00
1:56 AM,63.9,63.0,97,30.03,10.0,South,4.6,-,N/A,,Clear,190,2013-07-03 06:56:00
2:56 AM,63.9,63.0,97,30.02,10.0,South,5.8,-,N/A,,Clear,170,2013-07-03 07:56:00
3:56 AM,63.0,61.9,96,30.04,8.0,South,4.6,-,N/A,,Clear,180,2013-07-03 08:56:00
4:56 AM,61.9,61.9,100,30.04,6.0,Calm,Calm,-,N/A,,Clear,0,2013-07-03 09:56:00
5:39 AM,62.6,62.6,100,30.06,4.0,Calm,Calm,-,N/A,,Scattered Clouds,0,2013-07-03 10:39:00
5:56 AM,61.9,61.9,100,30.06,2.0,West,4.6,-,N/A,,Mostly Cloudy,260,2013-07-03 10:56:00
6:56 AM,63.0,63.0,100,30.08,2.0,SSW,4.6,-,N/A,,Overcast,210,2013-07-03 11:56:00
7:23 AM,64.4,62.6,94,30.10,2.5,SW,4.6,-,N/A,,Overcast,230,2013-07-03 12:23:00
7:56 AM,63.9,63.0,97,30.11,3.0,WSW,4.6,-,N/A,,Overcast,250,2013-07-03 12:56:00
8:22 AM,64.4,62.6,94,30.11,3.0,SSW,5.8,-,N/A,,Overcast,210,2013-07-03 13:22:00
8:56 AM,65.8,63.9,93,30.12,4.0,WSW,3.5,-,N/A,,Overcast,240,2013-07-03 13:56:00
9:16 AM,68.0,62.6,83,30.12,5.0,SSW,6.9,-,N/A,,Haze,200,2013-07-03 14:16:00
9:36 AM,69.8,62.6,78,30.13,5.0,SSE,6.9,-,N/A,,Haze,160,2013-07-03 14:36:00
9:56 AM,70.0,63.0,78,30.12,5.0,South,6.9,-,N/A,,Haze,190,2013-07-03 14:56:00
10:26 AM,71.6,64.4,78,30.11,10.0,WSW,4.6,-,N/A,,Scattered Clouds,240,2013-07-03 15:26:00
10:56 AM,72.9,63.9,73,30.11,8.0,WSW,5.8,-,N/A,,Mostly Cloudy,240,2013-07-03 15:56:00
11:56 AM,75.9,64.9,69,30.11,8.0,SSW,4.6,-,N/A,,Mostly Cloudy,210,2013-07-03 16:56:00
12:56 PM,77.0,63.9,64,30.11,7.0,SSW,6.9,-,N/A,,Mostly Cloudy,210,2013-07-03 17:56:00
1:56 PM,77.9,63.9,62,30.09,7.0,Calm,Calm,-,N/A,,Mostly Cloudy,0,2013-07-03 18:56:00
2:56 PM,79.9,63.0,56,30.08,7.0,South,3.5,-,N/A,,Mostly Cloudy,190,2013-07-03 19:56:00
3:56 PM,81.0,61.9,52,30.07,7.0,South,8.1,-,N/A,,Mostly Cloudy,180,2013-07-03 20:56:00
4:56 PM,81.0,63.9,56,30.06,7.0,Calm,Calm,-,N/A,,Scattered Clouds,0,2013-07-03 21:56:00
5:56 PM,79.9,63.0,56,30.05,7.0,SW,5.8,-,N/A,,Scattered Clouds,220,2013-07-03 22:56:00
6:56 PM,79.9,63.9,58,30.05,7.0,West,6.9,-,N/A,,Partly Cloudy,260,2013-07-03 23:56:00
7:56 PM,77.9,63.0,60,30.06,10.0,Calm,Calm,-,N/A,,Clear,0,2013-07-04 00:56:00
8:56 PM,74.8,63.9,69,30.07,10.0,Calm,Calm,-,N/A,,Clear,0,2013-07-04 01:56:00
9:56 PM,72.0,64.9,78,30.09,10.0,Calm,Calm,-,N/A,,Clear,0,2013-07-04 02:56:00
10:56 PM,70.9,64.9,81,30.09,10.0,Calm,Calm,-,N/A,,Clear,0,2013-07-04 03:56:00
11:56 PM,68.9,66.9,93,30.09,10.0,Calm,Calm,-,N/A,,Clear,0,2013-07-04 04:56:00